Location: Newark
(52.3500°N, 175.9667°E)
Time: 05:08:56
(UTC+00:00)

ISS - Visible Passes

Search period start: 22 November 2019 00:00
Search period end: 02 December 2019 00:00
Orbit: 412 x 421 km, 51.6° (Epoch: 22 November)

Date Brightness Start Highest point End Pass type
(mag) Time Alt. Az. Time Alt. Az. Time Alt. Az.
24 Nov -1.8 06:38:14 10° SSW 06:39:52 21° S 06:39:52 21° S visible
25 Nov -2.0 05:50:24 10° SSW 05:52:51 19° SE 05:53:31 18° SE visible
25 Nov -0.7 07:25:49 10° WSW 07:26:25 14° WSW 07:26:25 14° WSW visible
26 Nov -1.4 05:02:57 10° S 05:04:37 13° SE 05:06:18 10° ESE visible
26 Nov -2.6 06:37:32 10° SW 06:40:00 37° SSW 06:40:00 37° SSW visible
27 Nov -2.7 05:49:20 10° SW 05:52:24 34° SSE 05:53:31 26° ESE visible
27 Nov -0.8 07:25:34 10° WSW 07:26:25 17° WSW 07:26:25 17° WSW visible
28 Nov -2.2 05:01:17 10° SSW 05:04:04 25° SSE 05:06:54 10° E visible
28 Nov -3.1 06:37:09 10° WSW 06:39:54 53° SW 06:39:54 53° SW visible
29 Nov -3.4 05:48:45 10° WSW 05:52:03 56° SSE 05:53:21 32° E visible
29 Nov -0.8 07:25:21 10° W 07:26:14 17° W 07:26:14 17° W visible
30 Nov -3.0 05:00:26 10° SW 05:03:38 43° SSE 05:06:46 11° E visible
30 Nov -3.2 06:36:52 10° W 06:39:40 58° WSW 06:39:40 58° WSW visible
01 Dec -3.7 05:48:23 10° WSW 05:51:45 76° S 05:53:05 34° E visible
01 Dec -0.8 07:25:05 10° W 07:25:58 17° W 07:25:58 17° W visible
